Location: Sternwarte auf dem Internationalen Platz Vogelsang IP
(50.5721°N, 6.4398°E)
Time: 23:04:02
(UTC+01:00)

Transit 2A - Visible Passes

Search period start: 05 December 2025 00:00
Search period end: 15 December 2025 00:00
Orbit: 590 x 955 km, 66.7° (Epoch: 04 December)

Date Brightness Start Highest point End Pass type
(mag) Time Alt. Az. Time Alt. Az. Time Alt. Az.
05 Dec 7.5 07:02:31 10° S 07:07:39 45° ESE 07:13:18 10° NE visible
05 Dec 9.4 17:27:49 10° WNW 17:31:56 18° WSW 17:36:00 10° SW visible
06 Dec 8.1 06:26:49 10° S 06:31:36 32° ESE 06:36:48 10° NE visible
07 Dec 8.6 05:51:25 10° SSE 05:55:37 23° ESE 06:00:07 10° ENE visible
07 Dec 6.2 07:32:30 10° SW 07:38:02 78° NW 07:44:09 10° NE visible
08 Dec 9.0 05:16:28 10° SE 05:19:42 16° ESE 05:23:07 10° ENE visible
08 Dec 6.4 06:56:16 10° SSW 07:01:46 80° ESE 07:07:50 10° NE visible
09 Dec 9.3 04:42:46 10° ESE 04:43:52 11° E 04:44:58 10° E visible
09 Dec 6.9 06:20:12 10° SSW 06:25:34 58° ESE 06:31:29 10° NE visible
10 Dec 7.4 05:44:20 10° S 05:49:26 41° ESE 05:55:03 10° NE visible
10 Dec 6.5 07:27:03 10° WSW 07:32:31 49° NW 07:38:29 10° NNE visible
11 Dec 8.0 05:08:43 10° S 05:13:24 30° ESE 05:18:29 10° NE visible
11 Dec 6.2 06:50:32 10° SW 06:56:06 64° NW 07:02:13 10° NE visible
12 Dec 8.4 04:33:24 10° SSE 04:37:27 21° ESE 04:41:44 10° ENE visible
12 Dec 6.2 06:14:11 10° SW 06:19:46 84° NW 06:25:55 10° NE visible
13 Dec 8.8 03:59:46 13° ESE 04:01:33 15° E 04:04:35 10° ENE visible
13 Dec 6.4 05:40:13 26° SSW 05:43:30 73° ESE 05:49:35 10° NE visible
13 Dec 7.0 07:21:58 10° W 07:27:11 34° NW 07:32:47 10° NNE visible
14 Dec 6.9 05:06:09 45° SSE 05:07:19 53° ESE 05:13:12 10° NE visible
14 Dec 6.7 06:46:34 17° WSW 06:50:39 42° NW 06:56:31 10° NNE visible
